Location: Namasale
(1.5000°N, 32.6167°E)
Time: 05:23:55
(UTC+00:00)

Hubble Space Telescope - Pass Details

Date: 09 December 2021
Orbit: 534 x 538 km, 28.5° (Epoch: 19 January)

Event Time Altitude Azimuth Distance (km) Brightness Sun altitude
Rises 16:12:09 0° 249° (WSW) 2,673 7.0 -7.5°
Reaches altitude 10° 16:14:27 10° 254° (WSW) 1,781 5.1 -8.0°
Maximum altitude 16:18:27 50° 330° (NNW) 683 1.3 -9.0°
Enters shadow 16:22:14 11° 45° (NE) 1,694 2.7 -9.8°
